User: anonymous   Login
Location: Unspecified
(0.0000°N, 0.0000°E)
Time: 03:36:59
(UTC+00:00)
Language:

RESURS DK-1 - Orbit

View from above orbital plane
View from above orbital plane
View from above satellite
View from above satellite

Ground track
Ground track

The orbit data is extracted from the following two-line orbital elements,

1 29228U 06021A   16180.72072260  .00000140  00000-0  18113-4 0  9997
2 29228  69.9378 277.2267 0005415 192.5987 325.1848 15.01931234555023
Epoch (UTC): 28 June 2016 17:17:50
Eccentricity: 0.0005415
inclination: 69.9378°
perigee height: 557 km
apogee height: 565 km
right ascension of ascending node: 277.2267°
argument of perigee: 192.5987°
revolutions per day: 15.01931234
mean anomaly at epoch: 325.1848°
orbit number at epoch: 55502

The dashed part of the orbit path shows where the satellite is in the earth's shadow,  

DLR